Weather History for Massena, NY

Change the Weather History Date:

Sunday, June 30, 2013

  Actual Average Record
Temperature  
Mean Temperature 68 °F 68 °F  
Max Temperature 78 °F 79 °F 93 °F (1964)
Min Temperature 57 °F 57 °F 46 °F (1975)
Cooling Degree Days 3 4  
Month to date cooling degree days 77 75  
Year to date cooling degree days 100 89  
Since 1 June cooling degree days 77 75  
Growing Degree Days 17 (Base 50)    
Moisture  
Dew Point 59 °F    
Average Humidity 77    
Maximum Humidity 97    
Minimum Humidity 56    
Precipitation  
Precipitation 0.01 in 0.12 in 0.80 in (1958)
Month to date precipitation 7.62 3.52  
Year to date precipitation 15.92 15.45  
Sea Level Pressure  
Sea Level Pressure 29.82 in    
Wind  
Wind Speed 4 mph (WNW)    
Max Wind Speed 13 mph    
Max Gust Speed 16 mph    
Visibility 10 miles    
Events      
T = Trace of Precipitation, MM = Missing Value Source: NWS Daily Summary

Daily Weather History Graph

Daily Weather History Graph

Search for Another Location

Airport:

Trip Planner

Search our weather history database for the weather conditions in past years. The results will help you decide how hot, cold, wet, or windy it might be!

Date:

Astronomy

Jun. 30, 2013 Rise Set
Actual Time 5:16 AM EDT 8:49 PM EDT
Civil Twilight 4:39 AM EDT 9:26 PM EDT
Nautical Twilight 3:50 AM EDT 10:15 PM EDT
Astronomical Twilight 2:45 AM EDT 11:19 PM EDT
Moon 12:27 AM EDT (6/30) 1:50 PM EDT (6/30)
Length of Visible Light 16h 47m
Length of Day
15h 33m
Last Quarter, 45% of the Moon is Illuminated
Jun 30
Last Quarter
Jul 8
New
Jul 15
First Quarter
Jul 22
Full
Jul 29
Last Quarter

Hourly Weather History & Observations

Time (EDT) Temp. Dew Point Humidity Pressure Visibility Wind Dir Wind Speed Gust Speed Precip Events Conditions
12:45 AM 62.6 °F 60.8 °F 94% 29.69 in 10.0 mi South 3.5 mph - N/A   Overcast
12:53 AM 62.1 °F 60.1 °F 93% 29.69 in 10.0 mi SSW 3.5 mph - N/A   Overcast
1:19 AM 62.6 °F 60.8 °F 94% 29.70 in 10.0 mi Calm Calm - N/A   Overcast
1:53 AM 60.1 °F 59.0 °F 96% 29.70 in 10.0 mi West 3.5 mph - N/A   Clear
2:53 AM 57.9 °F 55.9 °F 93% 29.72 in 10.0 mi SW 5.8 mph - N/A   Clear
3:53 AM 61.0 °F 59.0 °F 93% 29.73 in 10.0 mi SW 3.5 mph - N/A   Overcast
4:53 AM 61.0 °F 59.0 °F 93% 29.76 in 10.0 mi WSW 3.5 mph - 0.01 in   Overcast
5:15 AM 60.8 °F 59.0 °F 94% 29.76 in 10.0 mi West 4.6 mph - N/A   Overcast
5:48 AM 60.8 °F 59.0 °F 94% 29.76 in 10.0 mi WNW 4.6 mph - N/A   Mostly Cloudy
5:53 AM 61.0 °F 59.0 °F 93% 29.77 in 10.0 mi West 4.6 mph - N/A   Mostly Cloudy
6:08 AM 60.8 °F 59.0 °F 94% 29.78 in 10.0 mi West 3.5 mph - N/A   Mostly Cloudy
6:21 AM 60.8 °F 59.0 °F 94% 29.78 in 10.0 mi West 3.5 mph - N/A   Overcast
6:53 AM 62.1 °F 60.1 °F 93% 29.79 in 10.0 mi West 3.5 mph - N/A   Mostly Cloudy
7:41 AM 64.4 °F 60.8 °F 88% 29.80 in 10.0 mi WNW 3.5 mph - N/A   Mostly Cloudy
7:53 AM 63.0 °F 59.0 °F 87% 29.81 in 10.0 mi Calm Calm - N/A   Mostly Cloudy
8:53 AM 66.0 °F 60.1 °F 81% 29.82 in 10.0 mi Calm Calm - N/A   Scattered Clouds
9:53 AM 69.1 °F 59.0 °F 70% 29.83 in 10.0 mi Calm Calm - N/A   Scattered Clouds
10:53 AM 71.1 °F 57.9 °F 63% 29.84 in 10.0 mi Variable 6.9 mph - N/A   Partly Cloudy
11:53 AM 72.0 °F 57.9 °F 61% 29.84 in 10.0 mi WSW 5.8 mph - N/A   Mostly Cloudy
12:53 PM 73.9 °F 59.0 °F 59% 29.85 in 10.0 mi WNW 5.8 mph - N/A   Partly Cloudy
1:53 PM 75.9 °F 60.1 °F 58% 29.85 in 10.0 mi West 10.4 mph - N/A   Partly Cloudy
2:53 PM 75.9 °F 59.0 °F 56% 29.86 in 10.0 mi NW 8.1 mph - N/A   Scattered Clouds
3:53 PM 77.0 °F 60.1 °F 56% 29.85 in 10.0 mi WNW 9.2 mph - N/A   Partly Cloudy
4:53 PM 77.0 °F 60.1 °F 56% 29.86 in 10.0 mi NNW 9.2 mph - N/A   Scattered Clouds
5:53 PM 75.9 °F 59.0 °F 56% 29.86 in 10.0 mi NNW 5.8 mph - N/A   Clear
6:53 PM 75.0 °F 59.0 °F 57% 29.88 in 10.0 mi North 6.9 mph - N/A   Clear
7:31 PM 73.4 °F 57.2 °F 57% 29.89 in 10.0 mi North 5.8 mph - N/A   Partly Cloudy
7:53 PM 73.0 °F 59.0 °F 61% 29.90 in 10.0 mi North 4.6 mph - N/A   Partly Cloudy
8:53 PM 68.0 °F 60.1 °F 76% 29.91 in 10.0 mi Calm Calm - N/A   Clear
9:53 PM 64.9 °F 59.0 °F 81% 29.94 in 10.0 mi NNE 4.6 mph - N/A   Clear
10:53 PM 62.1 °F 57.9 °F 86% 29.95 in 10.0 mi Calm Calm - N/A   Clear
11:53 PM 61.0 °F 59.0 °F 93% 29.95 in 10.0 mi Calm Calm - N/A   Clear